Terminal Aerodrome Forecast
Issued by NWS Lubbock, TX

Home | Current Version | Previous Version | Text Only | Print | Product List | Glossary On
Versions: 1 2 3 4 5 6 7 8 9 10 11 12 13 14 15 16 17
440
FTUS44 KLUB 240530
TAFLBB
TAF
KLBB 240530Z 2406/2506 VRB06KT P6SM BKN150 PROB30 2420/2424 5SM
      -TSRA BKN070CB=

USA.gov is the U.S. government's official web portal to all federal, state and local government web resources and services.